SR5NLK-1 Weather Reports


time (UTC)temp
C
wind
direction
speed
KPH
gust
KPH
rain 1hr
cm
rain 24hr
cm
rain mn
cm
humidity
%
barometer
mb
20260505002500 13 270 0.0 1.6 0.00 0.00 0.00 68 1001.0
20260505002000 13 292 0.0 3.2 0.00 0.00 0.00 68 977.1
20260505001500 13 292 1.6 3.2 0.00 0.00 0.00 67 1055.4
20260505001000 13 292 3.2 3.2 0.00 0.00 0.00 64 1061.7
20260505000859 13 292 0.0 3.2 0.00 0.00 0.00 63 929.8
20260505000500 13 292 0.0 0.0 0.00 0.00 0.00 63 1004.1
20260505000000 13 315 0.0 0.0 0.00 0.00 0.00 63 971.7
20260504235500 14 315 0.0 0.0 0.00 0.00 0.00 62 1049.7
20260504235000 14 22 0.0 0.0 0.00 0.00 0.00 62 1010.4
20260504234500 14 45 0.0 0.0 0.00 0.00 0.00 62 1013.5
20260504234047 14 67 0.0 0.0 0.00 0.00 0.00 61 979.6
20260504234000 14 67 0.0 0.0 0.00 0.00 0.00 61 979.6
20260504233559 14 112 0.0 0.0 0.00 0.00 0.00 61 968.5
20260504233500 14 112 0.0 0.0 0.00 0.00 0.00 60 965.4
20260504233000 15 90 0.0 0.0 0.00 0.00 0.00 60 1010.3
20260504232558 15 90 0.0 0.0 0.00 0.00 0.00 59 893.2
20260504232500 15 90 0.0 0.0 0.00 0.00 0.00 59 893.2
20260504232000 15 90 0.0 1.6 0.00 0.00 0.00 59 1004.1
20260504231500 15 135 0.0 0.0 0.00 0.00 0.00 58 1058.5
20260504231000 15 90 0.0 0.0 0.00 0.00 0.00 58 1090.9
20260504230500 15 135 0.0 0.0 0.00 0.00 0.00 57 1004.1
20260504230259 15 135 0.0 0.0 0.00 0.00 0.00 57 974.2
20260504230000 15 135 0.0 0.0 0.00 0.00 0.00 56 1007.3
20260504225500 15 135 0.0 0.0 0.00 0.00 0.00 56 974.8
20260504225000 16 135 0.0 1.6 0.00 0.00 0.00 55 994.7
20260504224500 16 135 0.0 0.0 0.00 0.00 0.00 55 1087.8
20260504224000 16 90 0.0 0.0 0.00 0.00 0.00 54 1009.6
20260504223500 16 157 0.0 0.0 0.00 0.00 0.00 54 994.7
20260504222959 16 112 0.0 0.0 0.00 0.00 0.00 53 962.3
20260504222500 16 112 0.0 0.0 0.00 0.00 0.00 53 965.8
20260504222000 16 112 0.0 0.0 0.00 0.00 0.00 53 1084.6
20260504221500 16 135 0.0 1.6 0.00 0.00 0.00 52 997.9
20260504221000 16 157 1.6 1.6 0.00 0.00 0.00 52 1051.7
20260504220500 17 180 0.0 0.0 0.00 0.00 0.00 52 974.8
20260504220000 17 135 0.0 0.0 0.00 0.00 0.00 51 1109.7
20260504215659 17 157 0.0 0.0 0.00 0.00 0.00 51 981.0
20260504215500 17 157 0.0 0.0 0.00 0.00 0.00 51 1099.0
20260504215000 17 180 0.0 1.6 0.00 0.00 0.00 50 1046.0
20260504214500 17 157 1.6 3.2 0.00 0.00 0.00 50 1087.8
20260504214000 17 135 3.2 3.2 0.00 0.00 0.00 49 974.8
20260504213500 17 135 0.0 0.0 0.00 0.00 0.00 49 933.0
20260504213000 18 135 0.0 0.0 0.00 0.00 0.00 49 1010.4
20260504212500 18 292 0.0 0.0 0.00 0.00 0.00 48 942.9
20260504212359 18 292 0.0 1.6 0.00 0.00 0.00 48 998.8
20260504212000 18 315 0.0 3.2 0.00 0.00 0.00 48 983.4
20260504211500 18 292 1.6 3.2 0.00 0.00 0.00 48 1063.0
20260504211001 18 315 1.6 3.2 0.00 0.00 0.00 48 933.2
20260504210501 18 292 3.2 4.8 0.00 0.00 0.00 48 968.9
20260504210000 18 315 3.2 4.8 0.00 0.00 0.00 47 936.1
20260504205500 18 315 3.2 4.8 0.00 0.00 0.00 47 1048.3
20260504205059 18 337 3.2 4.8 0.00 0.00 0.00 47 1042.8
20260504205000 -29 337 3.2 4.8 0.00 0.00 0.00 47 914.2
20260504204500 18 337 3.2 6.4 0.00 0.00 0.00 47 972.9
20260504204000 19 337 3.2 8.0 0.00 0.00 0.00 47 1046.9
20260504203500 19 292 4.8 6.4 0.00 0.00 0.00 46 974.6
20260504203000 19 292 4.8 6.4 0.00 0.00 0.00 46 1065.6
20260504202500 19 315 4.8 4.8 0.00 0.00 0.00 45 1058.6
20260504202001 19 292 3.2 4.8 0.00 0.00 0.00 45 1045.9
20260504201800 19 315 3.2 4.8 0.00 0.00 0.00 45 1097.2
20260504201500 19 292 4.8 6.4 0.00 0.00 0.00 45 1094.0
20260504201000 19 292 4.8 6.4 0.00 0.00 0.00 45 966.5
20260504200500 19 315 6.4 8.0 0.00 0.00 0.00 44 969.1
20260504200000 20 315 6.4 6.4 0.00 0.00 0.00 44 1002.5
20260504195500 20 270 6.4 8.0 0.00 0.00 0.00 43 1087.8
20260504195001 20 292 6.4 6.4 0.00 0.00 0.00 43 1045.9
20260504194500 20 292 1.6 9.7 0.00 0.00 0.00 42 1010.4
20260504194000 20 270 0.0 9.7 0.00 0.00 0.00 41 1008.8
20260504193501 20 270 6.4 12.9 0.00 0.00 0.00 40 911.0
20260504193001 20 202 4.8 8.0 0.00 0.00 0.00 39 1013.5
20260504192501 21 180 3.2 6.4 0.00 0.00 0.00 38 1052.2
20260504192001 21 202 6.4 8.0 0.00 0.00 0.00 38 1016.7
20260504191509 21 202 4.8 9.7 0.00 0.00 0.00 37 1007.3
20260504191501 21 202 4.8 9.7 0.00 0.00 0.00 37 1007.3
20260504191200 21 202 6.4 11.3 0.00 0.00 0.00 37 926.7
20260504191001 21 157 6.4 12.9 0.00 0.00 0.00 37 1090.9
20260504190510 21 180 6.4 9.7 0.00 0.00 0.00 37 1052.2
20260504190501 21 180 6.4 9.7 0.00 0.00 0.00 37 1052.2
20260504190001 21 202 8.0 9.7 0.00 0.00 0.00 36 1052.2
20260504185501 21 180 3.2 9.7 0.00 0.00 0.00 36 920.4
20260504185001 21 180 4.8 9.7 0.00 0.00 0.00 36 962.3
20260504184501 21 202 6.4 9.7 0.00 0.00 0.00 35 1052.2
20260504184001 21 202 4.8 4.8 0.00 0.00 0.00 35 974.6
20260504183900 21 202 1.6 4.8 0.00 0.00 0.00 35 1039.6
20260504183501 22 225 4.8 4.8 0.00 0.00 0.00 35 974.8
20260504183001 22 270 1.6 1.6 0.00 0.00 0.00 34 952.9
20260504182501 22 270 0.0 3.2 0.00 0.00 0.00 34 1046.0
20260504182007 22 270 0.0 6.4 0.00 0.00 0.00 33
20260504182001 22 270 0.0 6.4 0.00 0.00 0.00 33 1001.0
20260504181501 22 180 4.8 6.4 0.00 0.00 0.00 32 1081.5
20260504181001 23 180 3.2 6.4 0.00 0.00 0.00 32 1055.4
20260504180600 23 180 4.8 6.4 0.00 0.00 0.00 32 973.4
20260504180501 23 202 6.4 6.4 0.00 0.00 0.00 32 881.8
20260504180001 23 180 6.4 9.7 0.00 0.00 0.00 31 971.7
20260504175501 23 202 6.4 11.3 0.00 0.00 0.00 31 1100.3
20260504175001 24 202 9.7 9.7 0.00 0.00 0.00 30 932.9
20260504174501 25 202 4.8 6.4 0.00 0.00 0.00 29 1007.3
20260504174001 25 202 6.4 11.3 0.00 0.00 0.00 29 1042.8
20260504173501 25 202 4.8 8.0 0.00 0.00 0.00 29 977.9
20260504173300 25 202 3.2 9.7 0.00 0.00 0.00 29 1001.0
20260504173001 25 202 8.0 9.7 0.00 0.00 0.00 29 968.6
20260504172501 26 202 9.7 14.5 0.00 0.00 0.00 28 1013.5
20260504172001 26 202 6.4 14.5 0.00 0.00 0.00 28 1024.0
20260504171501 26 225 11.3 16.1 0.00 0.00 0.00 28 1013.5
20260504171001 26 225 6.4 14.5 0.00 0.00 0.00 28 968.5
20260504170501 26 225 11.3 20.9 0.00 0.00 0.00 27 1058.5
20260504151001 30 180 9.7 22.5 0.00 0.00 0.00 25 1058.5
20260504150501 30 180 3.2 19.3 0.00 0.00 0.00 25 960.9
20260504141001 30 292 8.0 22.5 0.00 0.00 0.00 23 1004.1
20260504140501 30 202 14.5 27.4 0.00 0.00 0.00 23 1010.4
20260504130501 30 270 9.7 27.4 0.00 0.00 0.00 23 965.4
20260504120300 31 225 8.0 22.5 0.00 0.00 0.00 22 1010.4
20260504110501 30 247 14.5 27.4 0.00 0.00 0.00 23 1079.3
20260504100502 28 225 30.6 30.6 0.00 0.00 0.00 26 1048.5
20260504082002 31 202 11.3 19.3 0.00 0.00 0.00 22 1058.0
20260504081502 31 202 19.3 22.5 0.00 0.00 0.00 22 1095.9
20260504081201 31 225 16.1 24.1 0.00 0.00 0.00 22 1008.2
20260504081002 31 247 14.5 24.1 0.00 0.00 0.00 22 1000.3
20260504080502 31 225 19.3 19.3 0.00 0.00 0.00 22 1085.0
20260504050502 28 202 8.0 27.4 0.00 0.00 0.00 25 962.0
20260504050002 28 135 12.9 29.0 0.00 0.00 0.00 26 1050.7
20260504045502 28 225 3.2 19.3 0.00 0.00 0.00 26 1043.1
20260504045401 28 180 11.3 19.3 0.00 0.00 0.00 26 1083.3
20260504045002 28 202 8.0 12.9 0.00 0.00 0.00 27 1033.4
20260504044502 27 202 9.7 16.1 0.00 0.00 0.00 28 1055.3
20260504044002 27 180 4.8 16.1 0.00 0.00 0.00 29 1068.1
20260504043502 26 180 6.4 11.3 0.00 0.00 0.00 30 1001.0
20260504043219 25 180 6.4 19.3 0.00 0.00 0.00 31 996.6
20260504043202 25 180 14.5 16.1 0.00 0.00 0.00 32 1081.5
20260504043002 25 180 6.4 19.3 0.00 0.00 0.00 31 996.6
20260504042742 24 225 6.4 14.5 0.00 0.00 0.00 33 1009.3
20260504042740 23 202 20.9 20.9 0.00 0.00 0.00 34 1043.8
20260504042502 25 180 14.5 16.1 0.00 0.00 0.00 32 1081.5
20260504042101 24 202 3.2 14.5 0.00 0.00 0.00 32 1087.7
20260504042009 24 225 6.4 14.5 0.00 0.00 0.00 33 1009.3
20260504042002 24 225 6.4 14.5 0.00 0.00 0.00 33 1009.3
20260504041502 23 202 20.9 20.9 0.00 0.00 0.00 34 1043.8
20260504041002 22 202 4.8 12.9 0.00 0.00 0.00 35 1036.6
20260504040502 21 202 8.0 8.0 0.00 0.00 0.00 38 1049.1
20260504040002 20 202 4.8 11.3 0.00 0.00 0.00 41 1097.2
20260504035502 18 180 3.2 9.7 0.00 0.00 0.00 44 1078.4
20260504035002 17 180 4.8 9.7 0.00 0.00 0.00 47 1045.9
20260504034801 16 157 1.6 9.7 0.00 0.00 0.00 48 1010.3
20260504034502 15 135 4.8 11.3 0.00 0.00 0.00 49 1087.8
20260504034002 14 180 6.4 6.4 0.00 0.00 0.00 50 1036.5
20260504033502 13 112 4.8 9.7 0.00 0.00 0.00 50 1039.7
20260504033002 13 270 3.2 12.9 0.00 0.00 0.00 50 1049.1
20260504032502 13 202 9.7 12.9 0.00 0.00 0.00 50 1094.5
20260504032002 12 202 4.8 11.3 0.00 0.00 0.00 51 1007.3
20260504031501 12 180 6.4 11.3 0.00 0.00 0.00 51 1010.4
20260504031002 12 157 9.7 11.3 0.00 0.00 0.00 51 1004.1
20260504030502 12 157 8.0 9.7 0.00 0.00 0.00 51 1005.8
20260504030002 12 202 4.8 9.7 0.00 0.00 0.00 51 964.4
20260504025502 12 180 4.8 9.7 0.00 0.00 0.00 51 1058.5
20260504025002 12 157 4.8 14.5 0.00 0.00 0.00 51 993.2
20260504024502 12 180 3.2 11.3 0.00 0.00 0.00 51 1043.4
20260504024201 12 180 8.0 9.7 0.00 0.00 0.00 51 991.6
20260504024002 12 180 3.2 9.7 0.00 0.00 0.00 51 1084.7
20260504023502 12 157 6.4 9.7 0.00 0.00 0.00 51 1036.5
20260504023002 13 180 3.2 11.3 0.00 0.00 0.00 50 1055.3
20260504022502 13 157 3.2 6.4 0.00 0.00 0.00 50 1042.8
20260504022002 13 202 6.4 8.0 0.00 0.00 0.00 50 1016.6
20260504021502 13 180 6.4 11.3 0.00 0.00 0.00 50 1042.8
20260504021009 13 180 3.2 6.4 0.00 0.00 0.00 49 1055.4
20260504021002 13 180 3.2 6.4 0.00 0.00 0.00 49 1055.4
20260504020901 13 202 3.2 6.4 0.00 0.00 0.00 49 1097.2
20260504020502 13 180 3.2 6.4 0.00 0.00 0.00 49 1045.0
20260504020002 13 135 3.2 11.3 0.00 0.00 0.00 49 1083.3
20260504015502 13 135 8.0 11.3 0.00 0.00 0.00 49 1033.4
20260504015002 13 180 3.2 11.3 0.00 0.00 0.00 49 1027.1
20260504014512 13 202 11.3 11.3 0.00 0.00 0.00 49
20260504014502 13 202 11.3 11.3 0.00 0.00 0.00 49 1046.0
20260504014002 13 157 4.8 9.7 0.00 0.00 0.00 48 1039.7
20260504013742 13 202 9.7 9.7 0.00 0.00 0.00 48 1011.8
20260504013601 13 157 6.4 9.7 0.00 0.00 0.00 48 1082.9
20260504013502 13 202 9.7 9.7 0.00 0.00 0.00 48 1011.8
20260504013002 14 157 8.0 9.7 0.00 0.00 0.00 48 1039.1
20260504012502 14 202 9.7 12.9 0.00 0.00 0.00 48 1042.8
20260504012002 14 157 4.8 20.9 0.00 0.00 0.00 48 1010.4
20260504011502 14 202 4.8 9.7 0.00 0.00 0.00 47 1056.7
20260504011002 14 180 4.8 8.0 0.00 0.00 0.00 47 968.6
20260504010502 14 202 4.8 9.7 0.00 0.00 0.00 47 1094.1
20260504010302 14 180 3.2 9.7 0.00 0.00 0.00 47 1055.4
20260504010002 14 180 6.4 9.7 0.00 0.00 0.00 47 1084.6
20260504005502 14 180 8.0 9.7 0.00 0.00 0.00 47 1081.5
20260504005002 14 180 9.7 9.7 0.00 0.00 0.00 47 1011.1
20260504004502 14 180 4.8 12.9 0.00 0.00 0.00 46 1058.4
20260504004002 14 157 8.0 9.7 0.00 0.00 0.00 46 994.7
20260504003502 15 202 4.8 9.7 0.00 0.00 0.00 46 1044.6
20260504003002 15 157 9.7 11.3 0.00 0.00 0.00 46 1072.1